Terminal Aerodrome Forecast
Issued by NWS

Home | Current Version | Previous Version | Text Only | Print | Product List | Glossary On
Versions: 1 2 3 4 5 6 7 8 9 10 11 12 13 14 15 16 17 18 19 20 21 22 23 24 25 26 27 28
000
FTAK31 PANC 281120
TAFADL
TAF
PADL 281120Z 2812/2912 19005KT P6SM SCT080 OVC110
     FM281800 20012KT P6SM OVC070
     FM290300 34012KT P6SM SCT060 BKN100
      AMD LTD TO CLD VIS AND WIND TIL 281600=

USA.gov is the U.S. government's official web portal to all federal, state and local government web resources and services.